Date String (YYYY-MM-DD hh:mm:ss) UTC,Instrument flags,absolute air pressure of the measurement (hPa),sample flow rate (lpm),inlet stack bypass flow (lpm),air temperature of the measurement (°C),ambient temperature measured by the external sensor (°C),aerosol sample conditioner tube jacket temperature (°C),OPC LED temperature (°C),internal box temperature (°C),relative humidity of the measurement (%),span deviation,mass concentration of particles derived from Lorenz-Mie calculation of OPC scattering (μg/m³),mass concentration of particles derived from Lorenz-Mie calculation of OPC scattering (μg/m³),mass concentration of particles derived from Lorenz-Mie calculation of OPC scattering (μg/m³)
DateTimeUTC,F1_M11,P_M11,Q1_M11,Q2_M11,T1_M11,T2_M11,T3_M11,T4_M11,T5_M11,U1_M11,ZSPAN_M11,X2_M11,X0_M11,X1_M11
2023-06-29 22:00:00,SystemResetWarning,0829.9,5.00,000.00,030.8,027.6,000.0,039.0,031.2,30.0,0000.8,0008.99,0019.70,0007.45
2023-06-29 22:01:00,SystemResetWarning,0829.9,5.01,000.00,030.8,027.8,000.0,039.0,031.3,30.1,0001.2,0008.88,0020.82,0007.39
2023-06-29 22:02:00,SystemResetWarning,0829.9,5.01,000.00,030.8,027.9,000.0,039.0,031.3,31.3,0001.1,0008.78,0022.09,0007.34
2023-06-29 22:03:00,SystemResetWarning,0829.9,5.00,000.00,030.8,028.1,000.0,039.0,031.4,30.8,0000.5,0008.76,0022.89,0007.30
2023-06-29 22:04:00,SystemResetWarning,0829.9,5.00,000.00,030.8,028.1,000.0,039.0,031.4,31.1,0000.5,0008.66,0021.72,0007.26
2023-06-29 22:05:00,SystemResetWarning,0829.9,4.98,000.00,030.8,026.9,000.0,038.9,031.3,31.4,0000.3,0008.56,0021.40,0007.23
2023-06-29 22:06:00,SystemResetWarning,0829.9,5.01,000.00,030.7,025.8,000.0,038.8,031.2,31.9,-000.1,0008.53,0021.64,0007.22
2023-06-29 22:07:00,SystemResetWarning,0830.0,5.01,000.00,030.6,025.8,000.0,038.8,031.0,32.2,-000.1,0008.53,0021.16,0007.24
2023-06-29 22:08:00,SystemResetWarning,0830.0,5.00,000.00,030.5,026.0,000.0,038.8,030.9,31.6,-000.5,0008.49,0020.97,0007.21
2023-06-29 22:09:00,SystemResetWarning,0830.1,5.00,000.00,030.4,026.4,000.0,038.8,030.9,32.3,-000.6,0008.44,0020.51,0007.18
2023-06-29 22:10:00,SystemResetWarning,0830.3,5.00,000.00,030.4,026.8,000.0,038.8,031.0,33.1,-000.7,0008.34,0020.15,0007.14
2023-06-29 22:11:00,SystemResetWarning,0830.2,5.01,000.00,030.4,027.1,000.0,038.8,031.1,33.1,-000.8,0008.35,0019.79,0007.12
2023-06-29 22:12:00,SystemResetWarning,0830.3,4.98,000.00,030.3,027.4,000.0,038.8,031.2,33.3,-001.2,0008.35,0019.49,0007.10
2023-06-29 22:13:00,SystemResetWarning,0830.3,5.00,000.00,030.3,027.6,000.0,038.8,031.2,33.4,-001.3,0008.39,0018.25,0007.10
2023-06-29 22:14:00,SystemResetWarning,0830.3,5.02,000.00,030.3,027.8,000.0,038.8,031.3,34.0,-001.2,0008.41,0018.26,0007.11
2023-06-29 22:15:00,SystemResetWarning,0830.3,4.98,000.00,030.3,028.0,000.0,038.8,031.3,34.7,-000.4,0008.46,0019.48,0007.10
2023-06-29 22:16:00,SystemResetWarning,0830.3,5.01,000.00,030.4,027.1,000.0,038.7,031.3,35.2,-000.4,0008.59,0019.75,0007.11
2023-06-29 22:17:00,SystemResetWarning,0830.3,5.01,000.00,030.6,025.5,000.0,038.5,031.2,34.8,-000.4,0008.61,0019.09,0007.10
2023-06-29 22:18:00,SystemResetWarning,0830.4,4.99,000.00,030.7,024.8,000.0,038.4,031.0,33.6,-000.6,0008.61,0019.80,0007.08
2023-06-29 22:19:00,SystemResetWarning,0830.4,5.00,000.00,030.6,025.0,000.0,038.4,030.7,33.7,-000.6,0008.61,0020.27,0007.06
2023-06-29 22:20:00,SystemResetWarning,0830.4,5.01,000.00,030.6,025.4,000.0,038.5,030.7,33.6,-000.2,0008.63,0021.56,0007.04
2023-06-29 22:21:00,SystemResetWarning,0830.4,5.00,000.00,030.5,025.9,000.0,038.5,030.8,32.3,0000.0,0008.73,0022.57,0007.01
2023-06-29 22:22:00,SystemResetWarning,0830.4,4.99,000.00,030.5,026.3,000.0,038.6,030.9,32.6,-000.0,0008.70,0023.05,0006.96
2023-06-29 22:23:00,SystemResetWarning,0830.4,4.99,000.00,030.5,026.7,000.0,038.6,030.9,32.7,0000.3,0008.67,0022.61,0006.94
2023-06-29 22:24:00,SystemResetWarning,0830.4,5.00,000.00,030.5,027.0,000.0,038.7,031.0,32.1,0000.2,0008.65,0023.02,0006.89
2023-06-29 22:25:00,SystemResetWarning,0830.5,5.00,000.00,030.5,027.3,000.0,038.7,031.1,32.2,0001.1,0008.64,0023.31,0006.85
2023-06-29 22:26:00,SystemResetWarning,0830.4,5.00,000.00,030.5,027.5,000.0,038.7,031.1,32.7,0000.3,0008.65,0022.78,0006.82
2023-06-29 22:27:00,SystemResetWarning,0830.3,5.00,000.00,030.5,027.7,000.0,038.8,031.2,32.7,0000.3,0008.55,0023.64,0006.78
2023-06-29 22:28:00,SystemResetWarning,0830.3,5.00,000.00,030.6,027.9,000.0,038.8,031.2,32.9,0000.4,0008.52,0023.02,0006.73
2023-06-29 22:29:00,SystemResetWarning,0830.2,5.00,000.00,030.6,028.0,000.0,038.8,031.3,33.2,0000.3,0008.41,0022.44,0006.68
2023-06-29 22:30:00,SystemResetWarning,0830.1,5.01,000.00,030.6,028.2,000.0,038.8,031.3,33.1,0000.6,0008.29,0022.29,0006.64
2023-06-29 22:31:00,SystemResetWarning,0830.0,4.99,000.00,030.6,027.9,000.0,038.8,031.3,31.5,0000.4,0008.19,0020.82,0006.61
2023-06-29 22:32:00,SystemResetWarning,0829.9,4.99,000.00,030.6,026.4,000.0,038.7,031.2,31.9,0000.8,0008.05,0020.03,0006.59
2023-06-29 22:33:00,SystemResetWarning,0829.8,5.02,000.00,030.5,025.8,000.0,038.6,031.0,31.9,0001.0,0008.02,0020.19,0006.58
2023-06-29 22:34:00,SystemResetWarning,0829.7,5.00,000.00,030.4,025.8,000.0,038.6,030.8,32.4,0000.4,0008.00,0019.57,0006.55
2023-06-29 22:35:00,SystemResetWarning,0829.7,5.00,000.00,030.3,026.1,000.0,038.6,030.8,31.6,0000.4,0007.96,0018.91,0006.54
2023-06-29 22:36:00,SystemResetWarning,0829.7,4.97,000.00,030.2,026.5,000.0,038.6,030.9,34.9,0000.3,0007.94,0018.25,0006.53
2023-06-29 22:37:00,SystemResetWarning,0829.7,5.02,000.00,030.3,026.9,000.0,038.6,031.0,34.9,-000.4,0007.81,0017.53,0006.50
2023-06-29 22:38:00,SystemResetWarning,0829.7,4.98,000.00,030.4,027.2,000.0,038.6,031.2,35.9,-000.8,0007.79,0017.15,0006.47
2023-06-29 22:39:00,SystemResetWarning,0829.7,5.02,000.00,030.7,027.4,000.0,038.6,031.3,34.0,-000.9,0007.79,0016.83,0006.46
2023-06-29 22:40:00,SystemResetWarning,0829.7,4.98,000.00,030.9,027.7,000.0,038.7,031.5,33.5,-000.4,0007.78,0016.78,0006.43
2023-06-29 22:41:00,SystemResetWarning,0829.7,5.00,000.00,031.1,027.9,000.0,038.7,031.5,32.3,-000.8,0007.79,0016.60,0006.42
2023-06-29 22:42:00,SystemResetWarning,0829.7,5.01,000.00,031.1,028.0,000.0,038.8,031.5,32.4,-000.9,0007.78,0016.96,0006.39
2023-06-29 22:43:00,SystemResetWarning,0829.7,4.99,000.00,031.2,028.1,000.0,038.9,031.5,32.6,-000.9,0007.76,0017.41,0006.37
2023-06-29 22:44:00,SystemResetWarning,0829.7,4.98,000.00,031.3,026.8,000.0,038.8,031.4,33.1,-001.1,0007.78,0017.06,0006.37
2023-06-29 22:45:00,SystemResetWarning,0829.7,5.00,000.00,031.2,025.9,000.0,038.8,031.3,32.0,-000.9,0007.77,0017.50,0006.37
2023-06-29 22:46:00,SystemResetWarning,0829.7,5.00,000.00,031.2,025.8,000.0,038.8,031.1,33.0,-000.6,0007.77,0017.48,0006.38
2023-06-29 22:47:00,SystemResetWarning,0829.7,5.01,000.00,031.0,026.1,000.0,038.9,031.0,34.3,-000.2,0007.81,0017.37,0006.39
2023-06-29 22:48:00,SystemResetWarning,0829.7,5.00,000.00,030.9,026.5,000.0,038.9,031.1,33.8,0000.1,0007.93,0018.61,0006.41
2023-06-29 22:49:00,SystemResetWarning,0829.8,4.98,000.00,030.9,026.8,000.0,039.0,031.1,34.5,0000.5,0007.94,0018.16,0006.43
2023-06-29 22:50:00,SystemResetWarning,0829.9,5.01,000.00,030.9,027.2,000.0,039.0,031.2,34.1,0000.1,0007.99,0018.32,0006.45
2023-06-29 22:51:00,SystemResetWarning,0829.9,5.00,000.00,030.9,027.4,000.0,039.0,031.3,33.9,0000.2,0008.01,0018.40,0006.46
2023-06-29 22:52:00,SystemResetWarning,0830.0,4.99,000.00,030.9,027.7,000.0,039.0,031.4,34.3,0000.4,0008.03,0018.71,0006.48
2023-06-29 22:53:00,SystemResetWarning,0830.0,4.99,000.00,030.9,027.9,000.0,039.1,031.4,34.8,0000.6,0008.12,0019.45,0006.50
2023-06-29 22:54:00,SystemResetWarning,0830.0,5.02,000.00,030.9,028.0,000.0,039.1,031.5,34.6,0000.6,0008.19,0019.33,0006.52
2023-06-29 22:55:00,SystemResetWarning,0830.0,4.98,000.00,031.0,027.9,000.0,039.1,031.5,35.5,0000.7,0008.27,0019.72,0006.55
2023-06-29 22:56:00,SystemResetWarning,0830.0,5.02,000.00,031.1,026.3,000.0,038.9,031.4,33.5,0001.3,0008.31,0019.39,0006.58
2023-06-29 22:57:00,SystemResetWarning,0830.0,4.99,000.00,031.2,025.1,000.0,038.8,031.2,34.2,0001.5,0008.34,0019.32,0006.60
2023-06-29 22:58:00,SystemResetWarning,0830.0,4.98,000.00,031.1,024.9,000.0,038.8,031.0,35.1,0001.2,0008.34,0019.19,0006.63
2023-06-29 22:59:00,SystemResetWarning,0830.0,5.03,000.00,031.0,025.3,000.0,038.8,030.8,36.2,0001.0,0008.33,0018.30,0006.66
